Powrót do katalogu

TOMORROW-S7

AktywnyNaukaVLEO
NORAD 63631·PAYLOAD·🇺🇸 United States

Wystrzelony Apr 22, 2025 z Cape Canaveral Space Force Station

Loading…

Następne Przeloty (najbliższe 24 godziny)

TLE

ŚwieżeSource: Space-Track

Epoka: Sep 14, 2026, 23:29 UTC

1 63631U 25081B   26257.97892231  .00001544  00000-0  14107-3 0  9998
2 63631  45.3907 229.4919 0002154 358.7593   1.3280 14.99860421 76659

Śledź TOMORROW-S7 w czasie rzeczywistym z AllMySat

Download on the App Store